Content
SEND FEEDBACK

Daily
Averages
Monthly
Summary
United States of America

BERKELEY, MISSOURI


Home > North America > United States > Missouri
Elevation: 172 meters     Latitude: 38 45N     Longitude: 090 22W

WEATHER
 
SELECT A DAY
Number of Records: 203,268;   Date Range: 1/1/95 - 7/7/14
 
SHARE

PRINT THIS DATA

[ ← Previous Day ]
WEATHER ALMANAC - 31 JANUARY, 2013
[ Next Day → ]
[ °F ]   °C
Weather ElementAverageHighLow
Temperature-3.4 °C0.6 °C (11:51 am)-11.1 °C (11:51 pm)
Dewpoint-10.9 °C-5 °C (2:07 pm)-18.9 °C (11:51 pm)
Humidity56.4 %75 % (2:07 pm)47 % (3:47 pm)
Barometer1019.3 hPa1030.1 hPa (11:51 pm)1013.9 hPa (2:58 am)
Wind Speed29.6 km/h42.6 km/h (3:51 pm)
Wind Gust57.5 km/h (3:47 pm)
Weather ElementAverage
Visibility13.8 km
Wind DirectionWNW (284.1 °)

Weather ElementTotal
Precipitation---
Heating Degree Days23.6 (Base 18.3)
Averaged from 29 records on 31 January, 2013
WEATHER CONDITIONS BREAKOUT
WIND DIRECTION BREAKOUT
WEATHER BY HOUR - 31 JANUARY, 2013
[ °F ]   °C
Local TimeTemperatureDewpointHumidityBarometerVisibilityWind DirectionWind SpeedGust SpeedPrecipitationEventsConditions
1:51 AM-2.2 °C-10 °C56 %1015.2 hPa14.5 kmWest (280°)40.7 km/h50.1 km/h0 mmSnowLight Snow
2:51 AM-2.2 °C-9.4 °C58 %1015.2 hPa14.5 kmWest (280°)25.9 km/h0 mmSnowLight Snow
2:58 AM-2 °C-9 °C59 %1013.9 hPa14.5 kmWest (270°)25.9 km/h0 mmSnowLight Snow
3:38 AM-2 °C-9 °C59 %1013.9 hPa14.5 kmWest (260°)27.8 km/h0 mmSnowLight Snow
3:51 AM-2.2 °C-10 °C56 %1014.9 hPa14.5 kmWest (280°)29.6 km/h40.7 km/h0 mmSnowLight Snow
4:51 AM-2.2 °C-9.4 °C58 %1014.9 hPa16.1 kmWest (260°)27.8 km/h38.9 km/h0 mmMostly Cloudy
5:51 AM-2.2 °C-8.9 °C61 %1015.6 hPa16.1 kmWest (270°)18.5 km/hMostly Cloudy
6:51 AM-2.8 °C-9.4 °C61 %1016.3 hPa16.1 kmWest (260°)18.5 km/hMostly Cloudy
7:51 AM-2.2 °C-9.4 °C58 %1016.9 hPa16.1 kmWest (260°)18.5 km/hMostly Cloudy
8:51 AM-1.7 °C-8.9 °C58 %1017.3 hPa16.1 kmWSW (250°)25.9 km/h31.5 km/hOvercast
9:51 AM-1.1 °C-8.3 °C59 %1018.3 hPa16.1 kmWest (260°)29.6 km/h38.9 km/h0 mmSnowLight Snow
10:51 AM0 °C-8.3 °C54 %1018.3 hPa16.1 kmWest (260°)29.6 km/h40.7 km/h0 mmMostly Cloudy
11:51 AM0.6 °C-7.8 °C54 %1017.6 hPa16.1 kmWest (260°)29.6 km/h35.2 km/hOvercast
12:51 PM0.6 °C-7.8 °C54 %1017.3 hPa16.1 kmWest (280°)33.3 km/hOvercast
1:14 PM0 °C-7 °C60 %1015.9 hPa4.8 kmWNW (290°)20.4 km/h0 mmSnowLight Snow
1:18 PM0 °C-6 °C64 %1015.9 hPa3.2 kmWNW (300°)18.5 km/h0 mmSnowLight Snow
2:07 PM-1 °C-5 °C75 %1016.6 hPa3.2 kmWNW (290°)27.8 km/h37 km/h0 mmSnowLight Snow
2:51 PM-1.1 °C-7.8 °C61 %1019 hPa4.8 kmWNW (300°)33.3 km/h51.8 km/h0 mmSnowLight Snow
2:59 PM-2 °C-9 °C59 %1017.6 hPa8 kmNW (310°)37 km/h50.1 km/h0 mmSnowLight Snow
3:47 PM-3 °C-13 °C47 %1018.6 hPa16.1 kmWNW (300°)37 km/h57.5 km/h0 mmOvercast
3:51 PM-2.8 °C-12.8 °C47 %1020 hPa16.1 kmNW (310°)42.6 km/h55.5 km/h0 mmMostly Cloudy
4:51 PM-5 °C-13.3 °C53 %1022 hPa16.1 kmNW (310°)42.6 km/h55.5 km/hMostly Cloudy
5:51 PM-6.7 °C-14.4 °C55 %1023.4 hPa16.1 kmWNW (300°)27.8 km/h46.3 km/hScattered Clouds
6:51 PM-7.2 °C-15.6 °C52 %1025.1 hPa16.1 kmWNW (290°)33.3 km/h48.1 km/hScattered Clouds
7:51 PM-7.2 °C-16.1 °C50 %1026.1 hPa16.1 kmWNW (300°)35.2 km/h50.1 km/hMostly Cloudy
8:51 PM-8.3 °C-17.2 °C50 %1027.4 hPa16.1 kmWNW (300°)31.5 km/h51.8 km/hScattered Clouds
9:51 PM-10 °C-18.3 °C52 %1028.8 hPa16.1 kmNW (310°)29.6 km/h46.3 km/hPartly Cloudy
10:51 PM-10.6 °C-18.3 °C54 %1029.5 hPa16.1 kmWNW (300°)29.6 km/h48.1 km/hPartly Cloudy
11:51 PM-11.1 °C-18.9 °C53 %1030.1 hPa16.1 kmWNW (300°)29.6 km/h50.1 km/hPartly Cloudy
Hourly data recorded from KSTL, located 0 kilometers away from Berkeley, Missouri







STORIES FROM OUR PARTNERS